FENGYUN 1C DEB, 31051

Orbit data source: Space-Track

FENGYUN 1C DEB, 31051 is space debris in SSO originally from a launch on Mon, 10 May 1999 UTC launched from the Taiyaun Space Center, China (TSC). Fengyun 1C debris stems from the Chinese weather satellite Fengyun-1C, which was intentionally destroyed by a Chinese anti-satellite missile in 2007. This event dramatically increased the amount of space debris, with thousands of trackable fragments posing hazards to satellites and human spaceflight. The Fengyun 1C debris cloud has become a focal point in discussions about space sustainability and the need for international regulations to prevent the creation of new debris.

Loading next visibility...
Identifier
31051, 1999-025BEV
Orbit
SSO
Country
Flag of CNCN / PRC
Related business
Manufacturer
Unknown
Mission
Spacecraft
Bus & Motor
Unknown
Mass
Unknown
Launch date (UTC)
1999-05-10 (27 years ago)
Launch vehicle
Unknown
Launch site
Taiyaun Space Center, China (TSC)
Object type
Payload
Rocket body
Debris
Shape & HBR
Unknown shape, 0.1 m
Radar Cross Section
Small (<0.1 m²)

Expand to show TLE details & history
Last TLE update: 3 days ago

TLE from 3 days ago
0 FENGYUN 1C DEB
1 31051U 99025BEV 26252.31144469  .00000151  00000-0  12210-3 0  9990
2 31051  98.7906 279.0789 0053800  99.8911 260.8335 14.03178468676138
Epoch: 2026-09-09T07:28Z
TLE epoch observation values (Epoch: 2026-09-09T07:28:28.821Z)
Latitude
-0.00001°
Longitude
178.59349°
Altitude
892.127 km
Speed
7.403 km/s
True Right ascension
18h 36m 18s
True Declination
0° 00' 00"
Sunlit
Object was in daylight at epoch
Visualization orbit readout
Latitude
Unknown
Longitude
Unknown
Altitude
Unknown
Speed
Unknown
Apparent Right ascension
Unknown
Apparent Declination
Unknown
Sunlit
N/A
Visualization observer readout
Local Sidereal Time
12:04:01
Azimuth
Unknown
Elevation
Unknown
Doppler factor
Unknown
Orbital elements
Apogee altitude
919.043 km
Perigee altitude
840.946 km
Semi-major axis
7,258.131 km
Eccentricity
0.00538
Inclination
98.7906°
RAAN
279.0789°
Arg. of periapsis
99.8911°
True anomaly
260.22553°
Mean anomaly
260.8335°
Eccentric anomaly
260.52945°
Mean motion
3.50999 °/min
Orbital period
102.56 mins
BSTAR
0.0001221
Loading maneuver chart data...
Computing Atmospheric mass density...
Loading historical data...
Loading historical data...
Loading historical data...
Loading historical data...
Loading historical data...
Loading historical data...
Loading historical data...

Documentation

Showing up to 5 results
|